Location: ???????
(38.3360°N, 23.6977°E)
Time: 22:23:31
(UTC+00:00)

Cosmos 1536 Rocket - Pass Details

Date: 17 November 2025
Orbit: 599 x 625 km, 82.5° (Epoch: 11 December)

Event Time Altitude Azimuth Distance (km) Brightness Sun altitude
Rises 16:53:38 0° 352° (N) 2,909 7.0 -20.1°
Reaches altitude 10° 16:55:53 10° 352° (N) 1,995 6.2 -20.5°
Maximum altitude 17:00:18 85° 267° (W) 625 3.5 -21.4°
Drops below altitude 10° 17:04:40 10° 176° (S) 1,965 6.2 -22.2°
Sets 17:06:52 0° 176° (S) 2,861 7.0 -22.6°
